Preview of NWS' New Version of Forecast
This preview is not operational and should not be used for support decisions.

Regional Weather Roundup (RWR)

Issued by National Weather Service (NWS)

                            
000
ASUS45 KCYS 170810
RWRWY 

WYOMING REGIONAL WEATHER ROUNDUP
NATIONAL WEATHER SERVICE CHEYENNE WY
100 AM MST SUN FEB 17 2019

NOTE:  "FAIR" INDICATES FEW OR NO CLOUDS BELOW 12,000 FEET
WITH NO SIGNIFICANT WEATHER AND/OR OBSTRUCTIONS TO VISIBILITY.

WYZ001-170900-
YELLOWSTONE NATIONAL PARK
  
CITY           SKY/WX    TMP DP  RH WIND       PRES   REMARKS
LK YELLOWSTONE   N/A      7   3  84 CALM      29.70R                  
W YELLOWSTONE  NOT AVBL                                               

$$
WYZ002>013-054>058-071-098>099-170900-
NORTHERN WYOMING
  
CITY           SKY/WX    TMP DP  RH WIND       PRES   REMARKS
JACKSON        MOCLDY    12   9  87 N3        29.74R                  
CODY           CLOUDY    10   8  92 N7        29.78R WCI  -1          
GREYBULL       LGT SNOW  15  11  83 NW14      29.81R FOG     WCI   0  
WORLAND        FAIR      14  11  87 NE5       29.79R WCI   6          
SHERIDAN       LGT SNOW   8   4  83 NW13      29.91R FOG     WCI  -8  
BUFFALO        FLURRIES   7   2  80 N15       29.79R WCI -10          
GILLETTE       CLOUDY     6   2  83 NW14      29.83R WCI -11          
HULETT         LGT SNOW   3  -2  78 MISG      29.84                   
NEWCASTLE        N/A      5   0  78 NW18G26   29.80  WCI -15          

$$
WYZ014>020-022>026-101>103-170900-
CENTRAL WYOMING
  
CITY           SKY/WX    TMP DP  RH WIND       PRES   REMARKS
BIG PINEY      FAIR      -7  -9  91 CALM      29.75R                  
PINEDALE       FAIR     -11 -17  77 NW7       29.75  WCI -26          
DUBOIS         CLOUDY    10   3  72 W8        29.68  WCI  -1          
LANDER         FAIR      16   2  54 W5        29.72R WCI   9          
RIVERTON       FAIR      18  13  80 W3        29.72S                  
CASPER         CLOUDY    17  14  88 N8        29.74R WCI   7          
DOUGLAS        CLOUDY    17  13  84 N12       29.76R WCI   4          

$$
WYZ021-027>030-104>119-170900-
SOUTHERN WYOMING
  
CITY           SKY/WX    TMP DP  RH WIND       PRES   REMARKS
EVANSTON       CLOUDY    12   6  77 SW7       29.74S WCI   1          
KEMMERER       FAIR      10   7  85 CALM      29.73                   
FORT BRIDGER   MOSUNNY   12   3  67 NE18      29.76F WCI  -5          
ROCK SPRINGS   FAIR      12   4  70 SW14      29.74R WCI  -3          
DIXON          CLOUDY    12   6  74 SE3       29.81R                  
RAWLINS        FAIR      16   9  74 W22       29.70F WCI  -2          
SARATOGA       FAIR      18  10  73 SW20      29.71S WCI   1          
LARAMIE        FAIR      11   3  70 W7        29.65R WCI   0          
CHEYENNE       FAIR      19   8  62 NW8       29.67R WCI   9          
TORRINGTON     CLOUDY    22  15  75 N10       29.75R WCI  11          
PINE BLUFFS    FLURRIES  16  14  93 W5        29.72S WCI   9          

$$